Kalispell, MT

7:47 PM MDT on May 21, 2018 (GMT -0600)
Glacier Park International

Weather History for KGPI - October, 2014

Change the Weather History Date:

Monday, October 27, 2014

  Actual Average Record
Temperature  
Mean Temperature 36 °F 38 °F  
Max Temperature 48 °F 49 °F 69 °F (1983)
Min Temperature 24 °F 27 °F 13 °F (2002)
Degree Days  
Heating Degree Days 29 27  
Month to date heating degree days 441 598  
Since 1 July heating degree days 806 1098  
Cooling Degree Days 0 0  
Month to date cooling degree days 0 0  
Year to date cooling degree days 217 147  
Moisture  
Dew Point 29 °F    
Average Humidity 65    
Maximum Humidity 92    
Minimum Humidity 37    
Precipitation  
Precipitation 0.00 in 0.04 in 0.42 in (1929)
Month to date precipitation 0.71 0.85  
Year to date precipitation 16.19 13.84  
Snow  
Snow 0.00 in - - ()
Month to date snowfall 0.0  
Year to date snowfall 38.2  
Since 1 July snowfall 0.0  
Snow Depth 0.00 in    
Sea Level Pressure  
Sea Level Pressure 30.11 in    
Wind  
Wind Speed 3 mph (SW)    
Max Wind Speed 14 mph    
Max Gust Speed 20 mph    
Visibility 10 miles    
Events      
T = Trace of Precipitation, MM = Missing Value Source: NWS Daily Summary

Daily Weather History Graph

Daily Weather History Graph

Search for Another Location

Airport or City:

Astronomy

Oct. 27, 2014 Rise Set
Actual Time 8:15 AM MDT 6:25 PM MDT
Civil Twilight 7:42 AM MDT 6:58 PM MDT
Nautical Twilight 7:06 AM MDT 7:34 PM MDT
Astronomical Twilight 6:29 AM MDT 8:10 PM MDT
Moon 12:03 PM MDT (10/27) 9:26 PM MDT (10/27)
Length of Visible Light 11h 15m
Length of Day
10h 10m
Waxing Crescent, 16% of the Moon is Illuminated
Oct 27
Waxing Crescent
Oct 30
First Quarter
Nov 6
Full
Nov 14
Last Quarter
Nov 22
New

Hourly Weather History & Observations

Time (MDT) Temp. Windchill Dew Point Humidity Pressure Visibility Wind Dir Wind Speed Gust Speed Precip Events Conditions
12:55 AM 39.9 °F 35.1 °F 34.0 °F 79% 29.96 in 10.0 mi South 6.9 mph - N/A   Overcast
1:55 AM 39.9 °F 34.5 °F 35.1 °F 83% 29.97 in 10.0 mi SSW 8.1 mph - N/A   Overcast
2:55 AM 39.9 °F 35.1 °F 34.0 °F 79% 29.99 in 10.0 mi SSW 6.9 mph - N/A   Overcast
3:55 AM 37.9 °F - 33.1 °F 83% 30.01 in 10.0 mi Calm Calm - N/A   Scattered Clouds
4:55 AM 37.0 °F - 34.0 °F 89% 30.02 in 10.0 mi Calm Calm - N/A   Overcast
5:55 AM 37.0 °F - 33.1 °F 86% 30.04 in 10.0 mi Calm Calm - N/A   Overcast
6:55 AM 35.1 °F - 33.1 °F 92% 30.05 in 10.0 mi Calm Calm - N/A   Overcast
7:55 AM 33.1 °F 30.0 °F 30.9 °F 92% 30.07 in 10.0 mi NNE 3.5 mph - N/A   Mostly Cloudy
8:55 AM 32.0 °F - 30.2 °F 93% 30.03 in 10.0 mi Calm Calm - N/A   Mostly Cloudy
9:55 AM 35.1 °F - 32.0 °F 89% 30.12 in 10.0 mi Calm Calm - N/A   Clear
10:55 AM 41.0 °F - 34.0 °F 76% 30.12 in 10.0 mi Calm Calm - N/A   Mostly Cloudy
11:55 AM 45.0 °F 42.6 °F 28.9 °F 53% 30.12 in 10.0 mi SW 4.6 mph - N/A   Overcast
12:55 PM 46.9 °F - 23.0 °F 39% 30.12 in 10.0 mi Variable 4.6 mph - N/A   Mostly Cloudy
1:55 PM 46.0 °F 41.0 °F 21.9 °F 39% 30.12 in 10.0 mi West 10.4 mph - N/A   Mostly Cloudy
2:55 PM 45.0 °F 39.3 °F 21.9 °F 40% 30.13 in 10.0 mi West 11.5 mph - N/A   Mostly Cloudy
3:55 PM 46.9 °F - 23.0 °F 39% 30.13 in 10.0 mi West 9.2 mph - N/A   Clear
4:55 PM 45.0 °F 40.1 °F 25.0 °F 46% 30.15 in 10.0 mi SW 9.2 mph - N/A   Clear
5:55 PM 44.1 °F 41.5 °F 26.1 °F 49% 30.15 in 10.0 mi WSW 4.6 mph - N/A   Clear
6:55 PM 37.9 °F 33.5 °F 27.0 °F 65% 30.18 in 10.0 mi WSW 5.8 mph - N/A   Clear
7:55 PM 32.0 °F 28.7 °F 26.1 °F 79% 30.21 in 10.0 mi SSW 3.5 mph - N/A   Clear
8:55 PM 30.9 °F - 26.1 °F 82% 30.23 in 10.0 mi Calm Calm - N/A   Clear
9:55 PM 28.0 °F - 25.0 °F 88% 30.24 in 10.0 mi Calm Calm - N/A   Scattered Clouds
10:55 PM 30.0 °F - 25.0 °F 82% 30.23 in 10.0 mi Calm Calm - N/A   Clear
11:55 PM 25.0 °F - 23.0 °F 92% 30.22 in 10.0 mi Calm Calm - N/A   Clear